Location: Peterborough
(44.3091°N, 78.3197°W)
Time: 05:18:50
(UTC-04:00)

A-11 Canister half - Pass Details

Date: 27 March 2023
Orbit: 1513 x 1686 km, 47.2° (Epoch: 04 June)

Event Time Altitude Azimuth Distance (km) Brightness Sun altitude
Rises 02:46:01 0° 288° (WNW) 4,901 11.6 -39.3°
Enters shadow 02:47:17 - 288° (WNW) 4,505 11.3 -39.2°
Exits shadow 03:00:20 77° 116° (ESE) 1,727 9.0 -38.0°
Drops below altitude 10° 03:09:32 10° 113° (ESE) 3,935 11.2 -37.0°
Sets 03:12:40 0° 113° (ESE) 4,911 11.8 -36.7°
